Regional Weather Roundup
Issued by NWS State College, PA

Home | Current Version | Previous Version | Text Only | Print | Product List | Glossary On
Versions: 1 2 3 4 5 6 7 8 9 10 11 12 13 14 15 16 17 18 19 20 21 22 23 24 25 26 27 28 29 30 31 32 33 34 35 36 37 38 39 40 41 42 43 44 45 46 47 48 49 50
000
ASUS41 KCTP 310203
RWRCTP

REGIONAL WEATHER ROUNDUP
NATIONAL WEATHER SERVICE STATE COLLEGE PA
1000 PM EDT SAT JUL 30 2016

Note: "fair" indicates few or no clouds below 12,000 feet with no
significant weather and/or obstructions to visibility.

* = STATION THAT DOES NOT REPORT PRECIPITATION /E.G. RAIN...SNOW...ETC/
    THUNDER OR FOG.

PAZ002>004-007>009-013>016-020>023-029>032-310300-
WESTERN PENNSYLVANIA

CITY           SKY/WX    TMP DP  RH WIND       PRES   REMARKS
ERIE           MOCLDY    74  68  81 SE8       29.96S
MEADVILLE      CLOUDY    69  67  93 CALM      30.00R
FRANKLIN*      CLOUDY    70  64  83 E5        30.02R
NEW CASTLE     FAIR      70  69  97 CALM      29.98S
BEAVER COUNTY  NOT AVBL
BUTLER*        CLOUDY    72  66  83 E6        30.01R
PITTSBURGH INT CLOUDY    70  67  90 S6        29.97R
PITTSBURGH     MOCLDY    72  69  90 S3        29.97F FOG
INDIANA*       CLOUDY    72  70  94 E6        30.04R
LATROBE        MOCLDY    70  70 100 CALM      30.00R
WASHINGTON CO* PTCLDY    68  64  88 CALM      29.99S
$$

PAZ004>006-010>012-017>019-024>028-033>037-041-042-045-046-049>053-310300-
CENTRAL PENNSYLVANIA

CITY           SKY/WX    TMP DP  RH WIND       PRES   REMARKS
BRADFORD       CLOUDY    67  64  90 E6        30.06R
DUBOIS         MOCLDY    67  63  87 E5        30.03R
CLEARFIELD     CLOUDY    69  65  86 CALM      30.04R
JOHNSTOWN      CLOUDY    68  65  90 SE3       30.04R
ALTOONA        MOCLDY    70  70 100 CALM      30.03R FOG
STATE COLLEGE  LGT RAIN  69  68  97 N6        30.01S
WILLIAMSPORT   HVY RAIN  71  68  90 NE5       29.99S FOG
SELINSGROVE    CLOUDY    73  72  96 SE3       30.00R
FT INDIANTOWN  CLOUDY    71  71 100 NE3       30.02R
CAPITAL CITY   CLOUDY    75  71  87 SE7       30.00R
HARRISBURG     CLOUDY    74  72  93 SE9       29.99R
YORK           CLOUDY    73  70  90 SE5       29.99R
$$

PAZ038>040-043-044-047-048-054-055-060>062-067>071-310300-
EASTERN PENNSYLVANIA

CITY           SKY/WX    TMP DP  RH WIND       PRES   REMARKS
SCRANTON       LGT RAIN  69  67  93 NE6       30.04R
MOUNT POCONO   CLOUDY    66  64  93 SE8       30.09S
ALLENTOWN      CLOUDY    72  69  90 E8        30.03R
QUAKERTOWN*    CLOUDY    72  72 100 CALM      30.04R
READING        CLOUDY    71  68  90 CALM      30.02R
LANCASTER      CLOUDY    70  70 100 E6        30.01R
COATESVILLE    LGT RAIN  72  70  94 SE5       30.04R
POTTSTOWN      CLOUDY    72  71  97 CALM      30.03S FOG
BLUE BELL      CLOUDY    72  72 100 CALM      30.01S
DOYLESTOWN     LGT RAIN  70  70 100 CALM      30.03R
WILLOW GROVE   NOT AVBL
NORTH PHILA    LGT RAIN  77  74  90 SE7       30.02S
PHILADELPHIA   LGT RAIN  76  73  91 SE8       30.02R
$$




USA.gov is the U.S. government's official web portal to all federal, state and local government web resources and services.